Regional Weather Roundup
Issued by NWS

Home | Current Version | Previous Version | Text Only | Print | Product List | Glossary On
Versions: 1 2 3 4 5 6 7 8 9 10 11 12 13 14 15 16 17 18 19 20 21 22 23 24 25 26 27 28 29 30 31 32 33 34 35 36 37 38 39 40 41 42 43 44 45 46 47 48 49 50
000
ASUS42 KKEY 292010
RWRKEY

FLORIDA REGIONAL WEATHER ROUNDUP FOR THE FLORIDA KEYS
NATIONAL WEATHER SERVICE KEY WEST FLORIDA
400 PM EDT TUE JUL 29 2014

...SOUTH FLORIDA AND THE KEYS...

CITY           SKY/WX    TMP DP  RH WIND       PRES   REMARKS
FORT MYERS     CLOUDY    88  77  69 SW12      29.97S HX 100
SW REGIONAL AP TSTM      81  75  82 SW7       29.99S
NAPLES           N/A     91  79  67 W16       29.98S HX 107
MIAMI          PTSUNNY   86  74  67 NW3       29.98F HX  94
WEST KENDALL   MOSUNNY   92  72  51 W12       29.97F HX  99
HOMESTEAD      MOSUNNY   91  75  60 SW10      29.97F HX 102
MARATHON       MOSUNNY   94  76  55 W8        30.00F HX 106
BOCA CHICA NAS PTSUNNY   92  71  50 NW9       30.02S HX  98
KEY WEST INTL  MOSUNNY   91  76  61 NW10      30.02F HX 103

...INTERNATIONAL WEATHER...

CITY           SKY/WX    TMP DP  RH WIND       PRES   REMARKS
NASSAU BAHAMAS PTSUNNY   88  72  58 SW7       30.01F HX  94
CANCUN MEXICO  MOSUNNY   90  73  58 NE9       30.04S HX  98
COZUMEL MEXICO MOSUNNY   90  73  58 SE6       30.03F HX  98

ADJACENT COASTAL WATERS...

STATION/POSITION TIME  SKY/WX   TEMP    WIND        PRES    WAVE
                                AIR SEA DIR/SP/G            HT/PER
                 (UTC)          (F)     (DEG/KT/KT) (MB)    (FT/S)
PULASKI SHOAL LI 2000            86     300/ 10/ 10 1016.7F
SAND KEY         2000            86     260/  7/  9 1016.6F
SOMBRERO KEY     2000            86     250/ 12/ 13 1016.6F
LONG KEY         2000            87 93  290/  7/  8 1016.6F
MOLASSES REEF    2000            86 87  220/ 12/ 13 1015.6F
FOWEY ROCKS      2000            87 87  170/ 15/ 15 1015.5F
Buoy 42080       NOT AVBL

$$


USA.gov is the U.S. government's official web portal to all federal, state and local government web resources and services.